Location: Saalfelden+am+Steinernen+Meer
(47.4274°N, 12.8411°E)
Time: 22:21:29
(UTC+02:00)

ISS - Visible Passes

Search period start: 03 October 2023 00:00
Search period end: 13 October 2023 00:00
Orbit: 414 x 421 km, 51.6° (Epoch: 03 October)

Date Brightness Start Highest point End Pass type
(mag) Time Alt. Az. Time Alt. Az. Time Alt. Az.
03 Oct -2.4 19:18:10 10° WNW 19:21:19 38° SW 19:24:26 10° SE visible
04 Oct -0.7 20:08:40 10° WSW 20:09:24 11° SW 20:10:07 10° SW visible
05 Oct -1.0 19:19:11 10° W 19:21:25 17° SW 19:23:39 10° S visible
